When you browse on this site, cookies collect data to enhance your experience and personalize the content and advertising you see.
Visit our Privacy Policy to learn more. By continuing to use the site, you agree to this use of cookies and data.
  • In Romania
  • List of Countries
  • For 7 days
  • Water Temperature
  • Weather Map
  • Weather Widgets
  • user-avatar
    Login

    Hourly Weather Luzhkovo

    Today, 28 May, Thursday

    Time Temperature Precipitation Wind Pressure Humidity
    00:00 +10°C° 0 mm 1 mps 744 mmHg 90%
    01:00 +9°C° 0 mm 1 mps 744 mmHg 91%
    02:00 +9°C° 0 mm 1 mps 744 mmHg 92%
    03:00 +10°C° 0 mm 1 mps 744 mmHg 90%
    04:00 +10°C° 0 mm 1 mps 744 mmHg 89%
    05:00 +11°C° 0 mm 1 mps 744 mmHg 87%
    06:00 +13°C° 0 mm 1 mps 744 mmHg 78%
    07:00 +15°C° 0 mm 1 mps 744 mmHg 69%
    08:00 +18°C° 0 mm 1 mps 745 mmHg 60%
    09:00 +19°C° 0.1 mm 1 mps 744 mmHg 55%
    10:00 +21°C° 0.1 mm 1 mps 744 mmHg 49%
    11:00 +22°C° 0.1 mm 1 mps 744 mmHg 44%
    12:00 +22°C° 0 mm 1 mps 744 mmHg 45%
    13:00 +20°C° 0 mm 2 mps 744 mmHg 46%
    14:00 +20°C° 0 mm 2 mps 744 mmHg 49%
    15:00 +20°C° 0 mm 2 mps 744 mmHg 49%
    16:00 +21°C° 0 mm 1 mps 743 mmHg 50%
    17:00 +21°C° 0 mm 1 mps 743 mmHg 51%
    18:00 +19°C° 0 mm 1 mps 743 mmHg 59%
    19:00 +16°C° 0 mm 1 mps 743 mmHg 67%
    20:00 +13°C° 0 mm 0 mps 743 mmHg 75%
    21:00 +12°C° 0.1 mm 0 mps 743 mmHg 78%
    22:00 +11°C° 0.1 mm 0 mps 743 mmHg 81%
    23:00 +10°C° 0.1 mm 0 mps 743 mmHg 84%

    Tomorrow, 29 May, Friday

    Time Temperature Precipitation Wind Pressure Humidity
    00:00 +11°C° 0 mm 1 mps 743 mmHg 85%
    01:00 +11°C° 0 mm 1 mps 743 mmHg 86%
    02:00 +10°C° 0 mm 1 mps 743 mmHg 87%
    03:00 +11°C° 0 mm 1 mps 743 mmHg 87%
    04:00 +11°C° 0 mm 1 mps 742 mmHg 87%
    05:00 +12°C° 0 mm 1 mps 742 mmHg 87%
    06:00 +12°C° 0.1 mm 1 mps 742 mmHg 87%
    07:00 +13°C° 0.1 mm 1 mps 742 mmHg 87%
    08:00 +13°C° 0.1 mm 2 mps 742 mmHg 87%
    09:00 +13°C° 0 mm 2 mps 742 mmHg 87%
    10:00 +13°C° 0 mm 2 mps 741 mmHg 87%
    11:00 +14°C° 0 mm 2 mps 741 mmHg 87%
    12:00 +14°C° 0.2 mm 2 mps 741 mmHg 88%
    13:00 +13°C° 0.2 mm 3 mps 741 mmHg 88%
    14:00 +12°C° 0.2 mm 3 mps 741 mmHg 88%
    15:00 +13°C° 0 mm 3 mps 741 mmHg 84%
    16:00 +14°C° 0 mm 3 mps 741 mmHg 80%
    17:00 +16°C° 0 mm 3 mps 741 mmHg 75%
    18:00 +14°C° 0 mm 3 mps 741 mmHg 80%
    19:00 +13°C° 0 mm 3 mps 741 mmHg 85%
    20:00 +12°C° 0 mm 3 mps 741 mmHg 90%
    21:00 +12°C° 0 mm 3 mps 741 mmHg 92%
    22:00 +11°C° 0 mm 3 mps 741 mmHg 94%
    23:00 +11°C° 0 mm 3 mps 741 mmHg 95%

    Day after tomorrow, 30 May, Saturday

    Time Temperature Precipitation Wind Pressure Humidity
    00:00 +11°C° 0 mm 4 mps 741 mmHg 95%
    01:00 +11°C° 0 mm 4 mps 741 mmHg 94%
    02:00 +11°C° 0 mm 4 mps 741 mmHg 94%
    03:00 +11°C° 0 mm 4 mps 741 mmHg 92%
    04:00 +11°C° 0 mm 4 mps 741 mmHg 90%
    05:00 +11°C° 0 mm 4 mps 741 mmHg 89%
    06:00 +12°C° 0 mm 5 mps 741 mmHg 86%
    07:00 +12°C° 0 mm 5 mps 741 mmHg 84%
    08:00 +13°C° 0 mm 5 mps 741 mmHg 82%
    09:00 +14°C° 0 mm 5 mps 741 mmHg 80%
    10:00 +14°C° 0 mm 5 mps 741 mmHg 77%
    11:00 +15°C° 0 mm 6 mps 741 mmHg 75%
    12:00 +15°C° 0 mm 6 mps 741 mmHg 74%
    13:00 +16°C° 0 mm 6 mps 741 mmHg 74%
    14:00 +16°C° 0 mm 6 mps 740 mmHg 73%
    15:00 +16°C° 0 mm 6 mps 740 mmHg 73%
    16:00 +16°C° 0 mm 6 mps 740 mmHg 73%
    17:00 +16°C° 0 mm 6 mps 740 mmHg 73%
    18:00 +15°C° 0 mm 6 mps 740 mmHg 74%
    19:00 +15°C° 0 mm 6 mps 740 mmHg 76%
    20:00 +14°C° 0 mm 6 mps 740 mmHg 77%
    21:00 +14°C° 0 mm 6 mps 740 mmHg 76%
    22:00 +13°C° 0 mm 6 mps 740 mmHg 75%
    23:00 +13°C° 0 mm 6 mps 740 mmHg 73%

    31 May, Sunday

    Time Temperature Precipitation Wind Pressure Humidity
    00:00 +13°C° 0 mm 6 mps 740 mmHg 72%
    01:00 +11°C° 0 mm 6 mps 740 mmHg 70%
    02:00 +10°C° 0 mm 6 mps 740 mmHg 68%
    03:00 +10°C° 0 mm 6 mps 740 mmHg 68%
    04:00 +10°C° 0 mm 6 mps 740 mmHg 68%
    05:00 +10°C° 0 mm 6 mps 740 mmHg 68%
    06:00 +11°C° 0 mm 6 mps 741 mmHg 62%
    07:00 +12°C° 0 mm 7 mps 741 mmHg 57%
    08:00 +14°C° 0 mm 7 mps 741 mmHg 52%
    09:00 +15°C° 0 mm 7 mps 742 mmHg 49%
    10:00 +16°C° 0 mm 7 mps 742 mmHg 46%
    11:00 +17°C° 0 mm 7 mps 742 mmHg 43%
    12:00 +19°C° 0 mm 6 mps 742 mmHg 44%
    13:00 +19°C° 0 mm 6 mps 742 mmHg 44%
    14:00 +19°C° 0 mm 6 mps 742 mmHg 44%
    15:00 +19°C° 0 mm 5 mps 742 mmHg 48%
    16:00 +17°C° 0 mm 5 mps 742 mmHg 51%
    17:00 +16°C° 0 mm 5 mps 742 mmHg 54%
    18:00 +15°C° 0 mm 4 mps 743 mmHg 57%
    19:00 +13°C° 0 mm 4 mps 743 mmHg 60%
    20:00 +12°C° 0 mm 4 mps 743 mmHg 63%
    21:00 +11°C° 0 mm 3 mps 744 mmHg 65%
    22:00 +9°C° 0 mm 3 mps 744 mmHg 67%
    23:00 +8°C° 0 mm 3 mps 745 mmHg 69%

    1 June, Monday

    Time Temperature Precipitation Wind Pressure Humidity
    00:00 +7°C° 0 mm 2 mps 745 mmHg 72%
    01:00 +6°C° 0 mm 2 mps 745 mmHg 76%
    02:00 +5°C° 0 mm 2 mps 745 mmHg 79%
    03:00 +6°C° 0 mm 2 mps 745 mmHg 78%
    04:00 +6°C° 0 mm 2 mps 745 mmHg 76%
    05:00 +7°C° 0 mm 2 mps 745 mmHg 75%
    06:00 +9°C° 0 mm 2 mps 745 mmHg 70%
    07:00 +10°C° 0 mm 3 mps 745 mmHg 65%
    08:00 +12°C° 0 mm 3 mps 745 mmHg 61%
    09:00 +13°C° 0 mm 3 mps 745 mmHg 59%
    10:00 +13°C° 0 mm 3 mps 745 mmHg 57%
    11:00 +14°C° 0 mm 4 mps 745 mmHg 55%
    12:00 +14°C° 0.1 mm 3 mps 745 mmHg 55%
    13:00 +16°C° 0.1 mm 3 mps 745 mmHg 55%
    14:00 +16°C° 0.1 mm 3 mps 744 mmHg 55%
    15:00 +16°C° 0 mm 3 mps 744 mmHg 57%
    16:00 +16°C° 0 mm 3 mps 744 mmHg 59%
    17:00 +16°C° 0 mm 2 mps 744 mmHg 61%
    18:00 +15°C° 0.2 mm 2 mps 744 mmHg 70%
    19:00 +13°C° 0.2 mm 2 mps 743 mmHg 80%
    20:00 +12°C° 0.2 mm 2 mps 743 mmHg 90%
    21:00 +10°C° 0.1 mm 2 mps 743 mmHg 93%
    22:00 +9°C° 0.1 mm 2 mps 743 mmHg 95%
    23:00 +9°C° 0.1 mm 2 mps 743 mmHg 97%

    2 June, Tuesday

    Time Temperature Precipitation Wind Pressure Humidity
    00:00 +8°C° 0 mm 2 mps 743 mmHg 98%
    01:00 +8°C° 0 mm 2 mps 743 mmHg 98%
    02:00 +8°C° 0 mm 2 mps 742 mmHg 98%
    03:00 +8°C° 0 mm 2 mps 742 mmHg 98%
    04:00 +9°C° 0 mm 2 mps 742 mmHg 97%
    05:00 +9°C° 0 mm 2 mps 742 mmHg 97%
    06:00 +10°C° 0.2 mm 2 mps 742 mmHg 94%
    07:00 +10°C° 0.2 mm 3 mps 742 mmHg 90%
    08:00 +11°C° 0.2 mm 3 mps 742 mmHg 87%
    09:00 +13°C° 0.1 mm 3 mps 742 mmHg 77%
    10:00 +14°C° 0.1 mm 3 mps 743 mmHg 66%
    11:00 +16°C° 0.1 mm 3 mps 743 mmHg 56%
    12:00 +16°C° 0.1 mm 3 mps 742 mmHg 56%
    13:00 +16°C° 0.1 mm 3 mps 742 mmHg 56%
    14:00 +16°C° 0.1 mm 3 mps 742 mmHg 56%
    15:00 +16°C° 0.1 mm 3 mps 742 mmHg 56%
    16:00 +17°C° 0.1 mm 3 mps 742 mmHg 55%
    17:00 +17°C° 0.1 mm 3 mps 741 mmHg 54%
    18:00 +15°C° 0 mm 2 mps 741 mmHg 61%
    19:00 +13°C° 0 mm 2 mps 741 mmHg 68%
    20:00 +11°C° 0 mm 1 mps 741 mmHg 75%
    21:00 +10°C° 0 mm 1 mps 742 mmHg 75%
    22:00 +9°C° 0 mm 1 mps 742 mmHg 75%
    23:00 +7°C° 0 mm 0 mps 742 mmHg 75%
    Show more